Location: Newark
(12.4436°N, 0.6167°W)
Time: 19:47:45
(UTC+00:00)

Vanguard 1 - Pass Details

Date: 16 December 2019
Orbit: 651 x 3832 km, 34.2° (Epoch: 18 January)

Event Time Altitude Azimuth Distance (km) Brightness Sun altitude
Rises 09:59:11 0° 303° (WNW) 7,212 14.1 43.9°
Reaches altitude 10° 10:04:40 10° 303° (WNW) 5,762 13.7 44.8°
Maximum altitude 10:20:21 83° 217° (SW) 1,809 12.3 47.0°
Drops below altitude 10° 10:28:26 10° 129° (SE) 3,156 13.5 48.1°
Sets 10:30:35 0° 128° (SE) 3,868 13.7 48.3°
